Weather in Oamaru

New Zealand     45°05′53″S   170°58′09″E
temp.,
°C
wind,
m/s
gust,
m/s
humid.,
%
clouds,
%
prec.,
mm/h
press.,
hPa
HPBL,
m
28 november, sun
sun2801:00+8nne2592100 0.1 1025279
04:00+8n2493100 0.1 1024194
07:00+8nnw1291100 0.2 102390
10:00+10nnw2485100 0.1 1023412
13:00+13nne457791 0.1 1022775
16:00+15ne656968 0.0 1019873
19:00+14ne56760 0.0 1018512
22:00+9nne359720 0.0 1019117
29 november, mon
mon2901:00+9nnw23950 0.0 101838
04:00+9w1192100 0.0 101719
07:00+11ssw249247 0.0 1018139
10:00+15sse336889 0.0 1018398
13:00+18e43595 0.0 1017550
16:00+19ene546764 0.0 1015561
19:00+17ne45755 0.0 1015354
22:00+12nne22950 0.0 101717
30 november, tue
tue3001:00+11nw11950 0.0 101612
04:00+11wnw22930 0.0 101519
07:00+13s26882 0.0 1017233
10:00+15se32601 0.0 1018550
13:00+16ese436423 0.0 1019803
16:00+15se547599 0.0 1020823
19:00+13sse5582100 0.1 1022649
22:00+11se3589100 0.3 1024342
1 december, wed
wed101:00+10e3592100 0.7 1025313
04:00+10e3592100 0.4 1024359
07:00+10ene5793100 0.9 1025490
10:00+11ene5892100 0.6 1026710
13:00+12ne6990100 1.0 1025812
16:00+13ne6888100 0.1 1024743
19:00+13ne6987100 0.3 1024607
22:00+13ne61087100 0.1 1025564
2 december, thu
thu201:00+12nne5983100 0.1 1025480
04:00+11nne4990100 0.0 1024364
07:00+12nne4883100 0.0 1024462
10:00+15nne6774100 0.0 1024766
13:00+17ne7670100 0.0 1023877
16:00+17ene6672100 0.0 1022754
19:00+16ne4577100 0.0 1022566
22:00+13ne2294100 0.0 102336